Date,TemperatureHighF,TemperatureAvgF,TemperatureLowF,DewpointHighF,DewpointAvgF,DewpointLowF,HumidityHigh,HumidityAvg,HumidityLow,PressureMaxIn,PressureMinIn,WindSpeedMaxMPH,WindSpeedAvgMPH,GustSpeedMaxMPH,PrecipitationSumIn
2013-2-1,18.2,17.6,16.6,14.2,13.7,12.9,86,84,82,30.13,30.10,4,0,4,0.00
2013-2-2,28.5,14.7,4.0,26.4,11.0,0.7,99,85,75,30.27,30.02,10,2,11,0.00
2013-2-3,24.5,17.5,9.5,19.6,13.3,6.2,92,83,72,30.19,29.88,15,4,16,0.00
2013-2-4,22.2,15.2,7.4,18.7,11.3,4.6,92,84,72,30.12,29.86,13,3,17,0.00
2013-2-5,35.6,26.3,14.7,31.3,23.1,12.3,91,88,82,30.14,29.77,12,2,12,0.00
2013-2-6,42.4,30.4,13.2,35.2,26.5,10.8,96,85,75,30.14,29.89,21,6,22,0.01
2013-2-7,34.7,31.5,26.7,32.6,29.5,25.1,94,92,90,30.00,29.96,8,1,8,0.00
2013-2-8,24.3,24.1,23.8,22.6,22.2,21.8,93,92,92,30.24,30.22,18,12,20,0.00
2013-2-9,36.7,28.5,23.5,33.2,26.4,22.0,95,92,83,30.23,29.84,23,12,23,0.00
2013-2-10,35.5,31.7,26.0,34.7,30.7,24.8,97,96,93,29.85,29.24,21,6,21,0.16
2013-2-11,26.3,22.2,18.5,25.1,19.3,14.7,100,88,82,30.15,29.51,11,3,12,0.00
2013-2-12,36.5,26.5,18.4,30.0,22.3,15.6,90,84,71,30.15,29.89,10,3,10,0.02
2013-2-13,36.0,28.2,21.7,32.3,25.3,19.2,91,89,86,29.89,29.66,9,2,10,0.00
2013-2-14,34.6,31.7,30.3,31.2,29.2,28.3,92,91,87,29.77,29.68,6,2,7,0.00
2013-2-16,21.5,20.6,19.4,19.0,18.2,17.2,91,90,89,30.15,30.12,7,4,7,0.00
2013-2-17,37.2,28.6,17.6,31.6,24.5,15.4,92,85,74,30.12,29.60,25,11,25,0.00
2013-2-18,34.9,27.3,4.2,31.7,23.7,-0.1,91,86,77,29.99,29.56,12,3,12,0.00
2013-2-19,10.2,2.5,-3.5,3.6,-2.7,-8.4,84,78,70,30.52,29.99,5,3,8,0.00
2013-2-20,16.4,5.6,-5.0,9.1,0.0,-9.3,85,78,65,30.56,30.44,10,4,11,0.00
2013-2-21,23.8,15.7,8.2,16.1,10.7,4.9,91,81,64,30.46,30.04,16,9,20,0.00
2013-2-22,24.3,18.2,13.6,21.7,15.9,11.2,92,91,88,30.04,29.94,10,3,12,0.02
2013-2-23,23.9,13.4,5.3,19.5,10.6,2.5,94,88,82,30.01,29.94,4,1,5,0.00
2013-2-24,23.2,14.4,1.3,21.2,12.1,-1.7,99,90,87,30.17,30.01,6,1,7,0.00
2013-2-25,26.1,22.9,21.4,23.8,21.1,19.6,94,93,90,30.17,30.05,13,2,13,0.01
2013-2-26,28.0,23.6,19.3,25.0,21.7,17.6,94,92,87,30.08,29.91,11,3,13,0.00
2013-2-27,31.8,22.3,19.5,26.4,19.3,16.8,92,88,78,30.11,29.92,12,3,12,0.00
2013-2-28,20.0,18.2,16.4,18.1,16.1,14.2,92,91,91,30.15,30.10,6,1,6,0.00